Time,TemperatureF,DewpointF,PressureIn,WindDirection,WindDirectionDegrees,WindSpeedMPH,WindSpeedGustMPH,Humidity,HourlyPrecipIn,Conditions,Clouds,dailyrainin,SoftwareType,DateUTC
2013-03-13 00:13:00,18.9,15.0,30.42,West,260,0.0,2.0,83,0.00,,,0.00,weatherlink.com 1.10,2013-03-13 06:13:00,
2013-03-13 00:28:00,18.3,14.0,30.43,WSW,248,0.0,1.0,83,0.00,,,0.00,weatherlink.com 1.10,2013-03-13 06:28:00,
2013-03-13 00:43:00,18.0,14.0,30.43,WSW,251,1.0,3.0,84,0.00,,,0.00,weatherlink.com 1.10,2013-03-13 06:43:00,
2013-03-13 00:58:00,17.6,14.0,30.43,SW,236,0.0,2.0,84,0.00,,,0.00,weatherlink.com 1.10,2013-03-13 06:58:00,
2013-03-13 01:13:00,17.1,13.0,30.43,WSW,245,2.0,2.0,84,0.00,,,0.00,weatherlink.com 1.10,2013-03-13 07:13:00,
2013-03-13 01:28:00,17.1,13.0,30.43,WSW,245,1.0,2.0,84,0.00,,,0.00,weatherlink.com 1.10,2013-03-13 07:28:00,
2013-03-13 01:43:00,16.6,13.0,30.43,SW,216,1.0,1.0,85,0.00,,,0.00,weatherlink.com 1.10,2013-03-13 07:43:00,
2013-03-13 01:58:00,16.2,12.0,30.43,WSW,252,0.0,2.0,84,0.00,,,0.00,weatherlink.com 1.10,2013-03-13 07:58:00,
2013-03-13 02:13:00,15.9,12.0,30.43,ESE,113,0.0,2.0,85,0.00,,,0.00,weatherlink.com 1.10,2013-03-13 08:13:00,
2013-03-13 02:28:00,15.2,12.0,30.44,South,191,0.0,1.0,85,0.00,,,0.00,weatherlink.com 1.10,2013-03-13 08:28:00,
2013-03-13 02:43:00,14.9,12.0,30.44,SW,222,0.0,1.0,87,0.00,,,0.00,weatherlink.com 1.10,2013-03-13 08:43:00,
2013-03-13 02:58:00,14.8,11.0,30.44,SSE,166,0.0,1.0,86,0.00,,,0.00,weatherlink.com 1.10,2013-03-13 08:58:00,
2013-03-13 03:13:00,14.3,11.0,30.45,SW,217,0.0,1.0,88,0.00,,,0.00,weatherlink.com 1.10,2013-03-13 09:13:00,
2013-03-13 03:28:00,13.9,11.0,30.44,South,169,0.0,2.0,86,0.00,,,0.00,weatherlink.com 1.10,2013-03-13 09:28:00,
2013-03-13 03:43:00,13.7,10.0,30.45,SW,231,0.0,1.0,86,0.00,,,0.00,weatherlink.com 1.10,2013-03-13 09:43:00,
2013-03-13 03:58:00,13.6,11.0,30.45,SW,217,0.0,1.0,87,0.00,,,0.00,weatherlink.com 1.10,2013-03-13 09:58:00,
2013-03-13 04:13:00,12.8,10.0,30.45,South,181,0.0,1.0,89,0.00,,,0.00,weatherlink.com 1.10,2013-03-13 10:13:00,
2013-03-13 04:28:00,12.8,10.0,30.46,SSW,203,0.0,0.0,87,0.00,,,0.00,weatherlink.com 1.10,2013-03-13 10:28:00,
2013-03-13 04:43:00,12.2,9.0,30.46,SW,224,0.0,1.0,88,0.00,,,0.00,weatherlink.com 1.10,2013-03-13 10:43:00,
2013-03-13 04:59:00,11.6,9.0,30.47,SSW,203,0.0,1.0,88,0.00,,,0.00,weatherlink.com 1.10,2013-03-13 10:59:00,
2013-03-13 05:14:00,11.1,9.0,30.48,SW,219,0.0,1.0,89,0.00,,,0.00,weatherlink.com 1.10,2013-03-13 11:14:00,
2013-03-13 05:29:00,10.9,8.0,30.48,SSW,207,0.0,1.0,89,0.00,,,0.00,weatherlink.com 1.10,2013-03-13 11:29:00,
2013-03-13 05:44:00,10.8,9.0,30.48,SSW,201,1.0,1.0,90,0.00,,,0.00,weatherlink.com 1.10,2013-03-13 11:44:00,
2013-03-13 05:59:00,10.7,8.0,30.49,SSE,164,0.0,1.0,90,0.00,,,0.00,weatherlink.com 1.10,2013-03-13 11:59:00,
2013-03-13 06:14:00,10.7,8.0,30.49,South,185,0.0,0.0,90,0.00,,,0.00,weatherlink.com 1.10,2013-03-13 12:14:00,
2013-03-13 06:29:00,10.8,8.0,30.49,SW,217,0.0,1.0,89,0.00,,,0.00,weatherlink.com 1.10,2013-03-13 12:29:00,
2013-03-13 06:44:00,10.6,8.0,30.50,SSW,203,1.0,1.0,88,0.00,,,0.00,weatherlink.com 1.10,2013-03-13 12:44:00,
2013-03-13 06:59:00,10.9,9.0,30.49,SSW,194,0.0,1.0,90,0.00,,,0.00,weatherlink.com 1.10,2013-03-13 12:59:00,
2013-03-13 07:14:00,10.4,8.0,30.50,WSW,246,1.0,2.0,89,0.00,,,0.00,weatherlink.com 1.10,2013-03-13 13:14:00,
2013-03-13 07:29:00,11.1,9.0,30.50,WSW,252,1.0,2.0,91,0.00,,,0.00,weatherlink.com 1.10,2013-03-13 13:29:00,
2013-03-13 07:44:00,11.3,9.0,30.52,West,265,0.0,1.0,88,0.00,,,0.00,weatherlink.com 1.10,2013-03-13 13:44:00,
2013-03-13 07:59:00,11.2,9.0,30.52,West,260,0.0,1.0,89,0.00,,,0.00,weatherlink.com 1.10,2013-03-13 13:59:00,
2013-03-13 08:14:00,11.6,9.0,30.53,WSW,257,0.0,1.0,89,0.00,,,0.00,weatherlink.com 1.10,2013-03-13 14:14:00,
2013-03-13 08:29:00,12.9,11.0,30.53,SSE,167,0.0,0.0,90,0.00,,,0.00,weatherlink.com 1.10,2013-03-13 14:29:00,
2013-03-13 08:44:00,15.6,12.0,30.54,SSW,205,0.0,1.0,87,0.00,,,0.00,weatherlink.com 1.10,2013-03-13 14:44:00,
2013-03-13 08:59:00,19.6,15.0,30.54,SSW,205,0.0,0.0,82,0.00,,,0.00,weatherlink.com 1.10,2013-03-13 14:59:00,
2013-03-13 09:14:00,24.0,17.0,30.54,SSW,201,0.0,0.0,76,0.00,,,0.00,weatherlink.com 1.10,2013-03-13 15:14:00,
2013-03-13 09:29:00,27.6,20.0,30.54,South,172,0.0,0.0,72,0.00,,,0.00,weatherlink.com 1.10,2013-03-13 15:29:00,
2013-03-13 09:44:00,28.0,19.0,30.53,ESE,110,0.0,3.0,69,0.00,,,0.00,weatherlink.com 1.10,2013-03-13 15:44:00,
2013-03-13 09:59:00,29.4,20.0,30.53,ESE,109,0.0,3.0,67,0.00,,,0.00,weatherlink.com 1.10,2013-03-13 15:59:00,
2013-03-13 10:14:00,30.7,20.0,30.52,East,99,2.0,4.0,65,0.00,,,0.00,weatherlink.com 1.10,2013-03-13 16:14:00,
2013-03-13 10:29:00,33.2,22.0,30.52,ESE,110,0.0,4.0,63,0.00,,,0.00,weatherlink.com 1.10,2013-03-13 16:29:00,
2013-03-13 10:44:00,35.7,22.0,30.52,ESE,122,0.0,6.0,59,0.00,,,0.00,weatherlink.com 1.10,2013-03-13 16:44:00,
2013-03-13 10:59:00,38.1,23.0,30.52,SE,136,0.0,6.0,54,0.00,,,0.00,weatherlink.com 1.10,2013-03-13 16:59:00,
2013-03-13 11:15:00,40.3,23.0,30.51,ESE,113,2.0,6.0,51,0.00,,,0.00,weatherlink.com 1.10,2013-03-13 17:15:00,
2013-03-13 11:30:00,40.3,22.0,30.50,East,101,8.0,11.0,49,0.00,,,0.00,weatherlink.com 1.10,2013-03-13 17:30:00,
2013-03-13 11:45:00,40.9,23.0,30.50,SSE,151,1.0,9.0,49,0.00,,,0.00,weatherlink.com 1.10,2013-03-13 17:45:00,
2013-03-13 12:00:00,41.0,22.0,30.50,ESE,110,0.0,12.0,48,0.00,,,0.00,weatherlink.com 1.10,2013-03-13 18:00:00,
2013-03-13 12:15:00,42.0,22.0,30.49,ESE,103,0.0,11.0,46,0.00,,,0.00,weatherlink.com 1.10,2013-03-13 18:15:00,
2013-03-13 12:30:00,42.2,23.0,30.49,NW,304,0.0,11.0,46,0.00,,,0.00,weatherlink.com 1.10,2013-03-13 18:30:00,
2013-03-13 12:45:00,42.9,23.0,30.49,ESE,117,5.0,8.0,45,0.00,,,0.00,weatherlink.com 1.10,2013-03-13 18:45:00,
2013-03-13 13:00:00,43.0,23.0,30.49,SE,127,3.0,10.0,46,0.00,,,0.00,weatherlink.com 1.10,2013-03-13 19:00:00,
2013-03-13 13:15:00,43.3,23.0,30.49,ESE,109,1.0,12.0,44,0.00,,,0.00,weatherlink.com 1.10,2013-03-13 19:15:00,
2013-03-13 13:30:00,43.4,23.0,30.48,ESE,102,2.0,11.0,45,0.00,,,0.00,weatherlink.com 1.10,2013-03-13 19:30:00,
2013-03-13 13:45:00,43.2,24.0,30.48,East,100,3.0,11.0,47,0.00,,,0.00,weatherlink.com 1.10,2013-03-13 19:45:00,
2013-03-13 14:00:00,44.4,23.0,30.47,NNW,340,4.0,10.0,43,0.00,,,0.00,weatherlink.com 1.10,2013-03-13 20:00:00,
2013-03-13 14:15:00,44.5,23.0,30.47,North,356,0.0,9.0,42,0.00,,,0.00,weatherlink.com 1.10,2013-03-13 20:15:00,
2013-03-13 14:30:00,44.3,23.0,30.46,East,90,1.0,12.0,43,0.00,,,0.00,weatherlink.com 1.10,2013-03-13 20:30:00,
2013-03-13 14:45:00,44.9,25.0,30.46,East,98,3.0,9.0,45,0.00,,,0.00,weatherlink.com 1.10,2013-03-13 20:45:00,
2013-03-13 15:00:00,45.5,23.0,30.46,ESE,120,2.0,7.0,41,0.00,,,0.00,weatherlink.com 1.10,2013-03-13 21:00:00,
2013-03-13 15:16:00,45.1,23.0,30.45,East,98,5.0,10.0,42,0.00,,,0.00,weatherlink.com 1.10,2013-03-13 21:16:00,
2013-03-13 15:30:00,45.5,22.0,30.45,SE,134,2.0,14.0,40,0.00,,,0.00,weatherlink.com 1.10,2013-03-13 21:30:00,
2013-03-13 15:46:00,45.2,23.0,30.45,ESE,106,1.0,9.0,41,0.00,,,0.00,weatherlink.com 1.10,2013-03-13 21:46:00,
2013-03-13 16:00:00,44.7,22.0,30.45,East,95,0.0,7.0,40,0.00,,,0.00,weatherlink.com 1.10,2013-03-13 22:00:00,
2013-03-13 16:15:00,43.2,23.0,30.45,SSE,162,1.0,6.0,45,0.00,,,0.00,weatherlink.com 1.10,2013-03-13 22:15:00,
2013-03-13 16:30:00,44.0,22.0,30.45,ESE,104,1.0,8.0,42,0.00,,,0.00,weatherlink.com 1.10,2013-03-13 22:30:00,
2013-03-13 16:45:00,44.7,22.0,30.44,South,188,2.0,12.0,40,0.00,,,0.00,weatherlink.com 1.10,2013-03-13 22:45:00,
2013-03-13 17:00:00,44.8,22.0,30.45,ESE,105,5.0,10.0,41,0.00,,,0.00,weatherlink.com 1.10,2013-03-13 23:00:00,
2013-03-13 17:15:00,44.1,22.0,30.45,East,81,0.0,13.0,42,0.00,,,0.00,weatherlink.com 1.10,2013-03-13 23:15:00,
2013-03-13 17:30:00,42.7,22.0,30.45,ESE,103,1.0,9.0,44,0.00,,,0.00,weatherlink.com 1.10,2013-03-13 23:30:00,
2013-03-13 17:45:00,41.6,23.0,30.45,NW,305,0.0,9.0,47,0.00,,,0.00,weatherlink.com 1.10,2013-03-13 23:45:00,
2013-03-13 18:00:00,41.1,22.0,30.45,North,2,0.0,5.0,46,0.00,,,0.00,weatherlink.com 1.10,2013-03-14 00:00:00,
2013-03-13 18:15:00,40.4,23.0,30.46,ESE,122,1.0,3.0,50,0.00,,,0.00,weatherlink.com 1.10,2013-03-14 00:15:00,
2013-03-13 18:30:00,39.8,24.0,30.46,WSW,249,0.0,2.0,53,0.00,,,0.00,weatherlink.com 1.10,2013-03-14 00:30:00,
2013-03-13 18:45:00,37.8,25.0,30.46,WSW,249,0.0,1.0,61,0.00,,,0.00,weatherlink.com 1.10,2013-03-14 00:45:00,
2013-03-13 19:00:00,35.8,26.0,30.47,WSW,249,0.0,1.0,68,0.00,,,0.00,weatherlink.com 1.10,2013-03-14 01:00:00,
2013-03-13 19:15:00,34.7,24.0,30.47,WSW,249,0.0,1.0,66,0.00,,,0.00,weatherlink.com 1.10,2013-03-14 01:15:00,
2013-03-13 19:30:00,33.1,24.0,30.48,WSW,249,0.0,1.0,70,0.00,,,0.00,weatherlink.com 1.10,2013-03-14 01:30:00,
2013-03-13 19:45:00,31.7,24.0,30.48,WSW,249,1.0,1.0,74,0.00,,,0.00,weatherlink.com 1.10,2013-03-14 01:45:00,
2013-03-13 20:00:00,30.5,23.0,30.48,WSW,249,0.0,1.0,74,0.00,,,0.00,weatherlink.com 1.10,2013-03-14 02:00:00,
2013-03-13 20:15:00,29.4,23.0,30.49,WSW,249,0.0,1.0,77,0.00,,,0.00,weatherlink.com 1.10,2013-03-14 02:15:00,
2013-03-13 20:30:00,28.3,22.0,30.49,WSW,248,0.0,1.0,78,0.00,,,0.00,weatherlink.com 1.10,2013-03-14 02:30:00,
2013-03-13 20:45:00,27.5,21.0,30.50,WSW,248,0.0,1.0,77,0.00,,,0.00,weatherlink.com 1.10,2013-03-14 02:45:00,
2013-03-13 21:00:00,26.9,21.0,30.51,WSW,248,0.0,1.0,79,0.00,,,0.00,weatherlink.com 1.10,2013-03-14 03:00:00,
2013-03-13 21:17:00,26.7,21.0,30.51,WSW,248,0.0,1.0,78,0.00,,,0.00,weatherlink.com 1.10,2013-03-14 03:17:00,
2013-03-13 21:46:00,25.7,20.0,30.53,WSW,246,0.0,1.0,80,0.00,,,0.00,weatherlink.com 1.10,2013-03-14 03:46:00,
2013-03-13 22:16:00,24.9,20.0,30.53,WSW,246,0.0,1.0,80,0.00,,,0.00,weatherlink.com 1.10,2013-03-14 04:16:00,
2013-03-13 22:31:00,24.8,19.0,30.54,WSW,246,0.0,1.0,79,0.00,,,0.00,weatherlink.com 1.10,2013-03-14 04:31:00,
2013-03-13 23:16:00,23.2,18.0,30.55,WSW,246,0.0,1.0,80,0.00,,,0.00,weatherlink.com 1.10,2013-03-14 05:16:00,
2013-03-13 23:46:00,22.4,17.0,30.56,WSW,246,0.0,1.0,79,0.00,,,0.00,weatherlink.com 1.10,2013-03-14 05:46:00,